Weather Roundup
Issued by NWS Springfield, MO

Home | Current Version | Previous Version | Text Only | Print | Product List | Glossary On
Versions: 1 2 3 4 5 6 7 8 9 10 11 12 13 14 15 16 17 18 19 20 21 22 23 24 25 26 27 28 29 30 31 32 33 34 35 36 37 38 39 40 41 42 43 44 45 46 47 48 49 50
000
NZUS99 KSGF 300207
HRRSGF

HOURLY WEATHER
NATIONAL WEATHER SERVICE SPRINGFIELD MO
900 PM CDT FRI AUG 29 2014

......SGF CWA......

CITY           SKY/WX    TMP DP  RH WIND       PRES   REMARKS
SPRINGFIELD    CLEAR     76  67  73 S13       29.92R
JOPLIN         PTCLDY    79  63  57 S9        29.89R
WEST PLAINS    CLOUDY    75  68  78 S5        29.98R
ROLLA          CLOUDY    74  67  78 S8        29.91R
OSAGE BEACH    CLOUDY    73  70  88 S8        29.89R
BRANSON        CLOUDY    75  66  73 S6        29.96R

......SURROUNDING SGF CWA......

CITY           SKY/WX    TMP DP  RH WIND       PRES   REMARKS
CHANUTE        CLEAR     76  65  68 S6        29.86R
PARSONS        PTCLDY    79  66  64 S8        29.87R
COFFEYVILLE    PTCLDY    75  69  81 S6        29.86S
EMPORIA        CLEAR     77  64  64 S10       29.85R
GROVE OK       PTCLDY    79  70  73 S7        29.90R
ROGERS AR      CLEAR     75  66  73 SE8       29.95R
SILOAM SPRINGS   N/A     73  63  68 S6        29.94R
HARRISON AR    CLOUDY    72  70  93 SE7       29.97R
NEAR YELLVILLE CLOUDY    73  66  78 CALM      29.96R

......KANSAS AND MISSOURI......

CITY           SKY/WX    TMP DP  RH WIND       PRES   REMARKS
KANSAS CTY INT MOCLDY    69  67  93 S8        29.83R
DOWNTOWN KC    TSTM      73  66  78 NW7       29.83R
COLUMBIA       CLOUDY    75  73  93 SE7       29.88R
SEDALIA        CLEAR     75  68  78 S5        29.86R
ST JOSEPH      MOCLDY    76  68  76 S13       29.80R
ST LOUIS       MOCLDY    84  66  54 S9G20     29.90R
SPIRIT OF STL  CLOUDY    78  69  73 SW3       29.88R
KIRKSVILLE     PTCLDY    71  68  90 S5        29.84R
WICHITA        PTCLDY    73  68  84 S8        29.86R
TOPEKA         CLOUDY    73  71  93 CALM      29.81R
OLATHE         MOCLDY    78  64  61 W8        29.84R

......TENNESSEE......

CITY           SKY/WX    TMP DP  RH WIND       PRES   REMARKS
MEMPHIS        CLOUDY    83  69  62 SW5       29.96R
NASHVILLE      PTCLDY    79  62  56 S5        30.01R

......ARKANSAS.......

CITY           SKY/WX    TMP DP  RH WIND       PRES   REMARKS
FAYETTEVILLE   CLEAR     72  69  90 CALM      29.94R
FT SMITH       PTCLDY    76  71  85 E5        29.90R
LITTLE ROCK    CLOUDY    79  70  74 N7        29.95R

......OKLAHOMA.......

CITY           SKY/WX    TMP DP  RH WIND       PRES   REMARKS
TULSA          PTCLDY    82  68  62 S14       29.86R
PONCA CITY     RAIN      73  69  87 E6        29.87R FOG
MCALESTER      PTCLDY    80  71  74 S3        29.90R
OKLAHOMA CITY  PTCLDY    75  66  73 S6        29.89R

......IOWA............

CITY           SKY/WX    TMP DP  RH WIND       PRES   REMARKS
DES MOINES     LGT RAIN  71  68  90 SW6       29.78R
QUAD CITIES    CLOUDY    73  66  78 S14       29.82R

......ILLINOIS........

CITY           SKY/WX    TMP DP  RH WIND       PRES   REMARKS
QUINCY         CLOUDY    73  70  90 S8        29.86R
CHICAGO        TSTM      79  69  71 S15       29.88S




USA.gov is the U.S. government's official web portal to all federal, state and local government web resources and services.